This demonstration page uses our WeatherBlox Daily Observations layout. Learn more.

Left ArrowRight Arrow

Hourly Observations for May 7, 2021

Temp ( °F °C ) Dew Point ( °F °C ) Humidity (%) Winds ( mph kmh ) Pressure ( in mb ) Visibility ( mi km ) Precip ( " mm )
12:56 am 00:56 Clear 52 11.1 38 3.3 59 59 SSW 9 15 30.14 1021 10 16 0.00 0.00
1:56 am 01:56 Clear 52 11.1 38 3.3 59 59 SW 9 15 30.13 1020 10 16 0.00 0.00
2:56 am 02:56 Clear 52 11.1 37 2.8 57 57 NW 5 7 30.13 1020 10 16 0.00 0.00
3:56 am 03:56 Clear 48 8.9 37 2.8 66 66 NNW 5 7 30.13 1020 10 16 0.00 0.00
4:56 am 04:56 Clear 45 7.2 37 2.8 74 74 WNW 5 7 30.13 1020 10 16 0.00 0.00
5:56 am 05:56 Clear 45 7.2 36 2.2 71 71 Calm 30.13 1020 10 16 0.00 0.00
6:56 am 06:56 Sunny 43 6.1 37 2.8 80 80 NW 5 7 30.13 1020 8 13 0.00 0.00
7:56 am 07:56 Cloudy 49 9.4 40 4.4 71 71 Calm 30.14 1021 10 16 0.00 0.00
8:56 am 08:56 Mostly Cloudy 53 11.7 43 6.1 69 69 Calm 30.12 1020 10 16 0.00 0.00
9:56 am 09:56 Cloudy 56 13.3 40 4.4 55 55 SE 8 13 30.11 1020 10 16 0.00 0.00
10:56 am 10:56 Cloudy 57 13.9 41 5 55 55 E 8 13 30.11 1020 10 16 0.00 0.00
11:56 am 11:56 Cloudy 60 15.6 41 5 50 50 E 14 22 30.09 1019 10 16 0.00 0.00
12:56 pm 12:56 Sunny 64 17.8 42 5.6 45 45 E 17 28 30.05 1018 10 16 0.00 0.00
1:56 pm 13:56 Sunny 67 19.4 43 6.1 42 42 E 16 26 30.01 1016 10 16 0.00 0.00
2:56 pm 14:56 Sunny 69 20.6 45 7.2 42 42 ESE 21 33 29.98 1015 10 16 0.00 0.00
3:56 pm 15:56 Sunny 70 21.1 45 7.2 41 41 E 15 24 29.96 1015 10 16 0.00 0.00
4:56 pm 16:56 Sunny 71 21.7 45 7.2 39 39 ESE 15 24 29.93 1014 10 16 0.00 0.00
5:56 pm 17:56 Sunny 70 21.1 45 7.2 41 41 ESE 17 28 29.91 1013 10 16 0.00 0.00
7:56 pm 19:56 Sunny 66 18.9 44 6.7 45 45 E 15 24 29.89 1012 10 16 0.00 0.00
8:56 pm 20:56 Clear 62 16.7 42 5.6 48 48 E 17 28 29.90 1012 10 16 0.00 0.00
9:56 pm 21:56 Clear 59 15 42 5.6 54 54 E 15 24 29.91 1013 10 16 0.00 0.00
10:56 pm 22:56 Clear 58 14.4 44 6.7 60 60 ESE 20 31 29.91 1013 10 16 0.00 0.00
11:56 pm 23:56 Mostly Cloudy 57 13.9 44 6.7 62 62 ESE 18 30 29.89 1012 10 16 0.00 0.00

Powered by AerisWeather